Novato, CA

2:43 PM PDT on August 29, 2016 (GMT -0700)
Gnoss

Weather History for KDVO - April, 2013

Change the Weather History Date:

Monday, April 8, 2013

  Actual Average (KAPC) Record (KAPC)
Temperature  
Mean Temperature 57 °F 54 °F  
Max Temperature 66 °F 67 °F 81 °F (2014)
Min Temperature 48 °F 41 °F 29 °F (2001)
Degree Days  
Heating Degree Days 8    
Month to date heating degree days  
Since 1 July heating degree days  
Cooling Degree Days 0    
Month to date cooling degree days  
Year to date cooling degree days  
Growing Degree Days 7 (Base 50)    
Moisture  
Dew Point 38 °F    
Average Humidity 47    
Maximum Humidity 62    
Minimum Humidity 34    
Precipitation  
Precipitation 0.00 in - 1.20 in (1926)
Month to date precipitation  
Year to date precipitation  
Sea Level Pressure  
Sea Level Pressure 29.98 in    
Wind  
Wind Speed 17 mph (NW)    
Max Wind Speed 22 mph    
Max Gust Speed 31 mph    
Visibility 10 miles    
Events      
T = Trace of Precipitation, MM = Missing Value Source: NWS Daily Summary

Daily Weather History Graph

Daily Weather History Graph

Search for Another Location

Airport or City:

Trip Planner

Search our weather history database for the weather conditions in past years. The results will help you decide how hot, cold, wet, or windy it might be!

Date:

Astronomy

Apr. 08, 2013 Rise Set
Actual Time 6:44 AM PDT 7:40 PM PDT
Civil Twilight 6:17 AM PDT 8:07 PM PDT
Nautical Twilight 5:45 AM PDT 8:39 PM PDT
Astronomical Twilight 5:12 AM PDT 9:12 PM PDT
Moon 5:36 AM PDT (4/8) 6:20 PM PDT (4/8)
Length of Visible Light 13h 49m
Length of Day
12h 55m
Waning Crescent, 3% of the Moon is Illuminated
Apr 8
Waning Crescent
Apr 10
New
Apr 18
First Quarter
Apr 25
Full
May 2
Last Quarter

Hourly Weather History & Observations

Time (PDT) Temp. Dew Point Humidity Pressure Visibility Wind Dir Wind Speed Gust Speed Precip Events Conditions
1:35 AM - - N/A% - - North - - N/A   Unknown
1:55 AM - - N/A% - - North - - N/A   Unknown
2:15 AM - - N/A% - - North - - N/A   Unknown
2:35 AM - - N/A% - - North - - N/A   Unknown
2:55 AM - - N/A% - - North - - N/A   Unknown
3:15 AM - - N/A% - - North - - N/A   Unknown
3:35 AM - - N/A% - - North - - N/A   Unknown
3:55 AM - - N/A% - - North - - N/A   Unknown
4:15 AM - - N/A% - - North - - N/A   Unknown
4:35 AM - - N/A% - - North - - N/A   Unknown
4:55 AM - - N/A% - - North - - N/A   Unknown
5:15 AM - - N/A% - - North - - N/A   Unknown
5:35 AM - - N/A% - - North - - N/A   Unknown
5:55 AM - - N/A% - - North - - N/A   Unknown
6:15 AM - - N/A% - - North - - N/A   Unknown
6:35 AM - - N/A% - - North - - N/A   Unknown
6:55 AM - - N/A% - - North - - N/A   Unknown
7:15 AM - - N/A% - - North - - N/A   Unknown
7:35 AM - - N/A% - - North - - N/A   Unknown
7:55 AM - - N/A% - - North - - N/A   Unknown
8:15 AM 48.2 °F 35.6 °F 62% 29.96 in 10.0 mi NNW 17.3 mph 31.1 mph N/A   Unknown
8:35 AM 50.0 °F 35.6 °F 58% 29.96 in 10.0 mi NW 21.9 mph 28.8 mph N/A   Clear
8:55 AM 50.0 °F 35.6 °F 58% 29.97 in 10.0 mi NNW 20.7 mph 31.1 mph N/A   Clear
9:15 AM 51.8 °F 35.6 °F 54% 29.98 in - NNW 19.6 mph 29.9 mph N/A   Clear
9:35 AM 51.8 °F 35.6 °F 54% 29.98 in - NNW 19.6 mph 26.5 mph N/A   Clear
9:55 AM 53.6 °F 35.6 °F 51% 29.99 in - NNW 17.3 mph 27.6 mph N/A   Clear
10:15 AM 55.4 °F 35.6 °F 47% 29.99 in - NNW 20.7 mph - N/A   Clear
10:35 AM 55.4 °F 35.6 °F 47% 29.99 in - NW 13.8 mph 21.9 mph N/A   Clear
10:55 AM 57.2 °F 35.6 °F 44% 29.99 in - NW 19.6 mph 24.2 mph N/A   Clear
11:15 AM 57.2 °F 35.6 °F 44% 29.99 in - NNW 13.8 mph 20.7 mph N/A   Clear
11:35 AM 59.0 °F 35.6 °F 42% 29.99 in - NW 16.1 mph - N/A   Clear
11:55 AM 59.0 °F 35.6 °F 42% 29.98 in - NW 12.7 mph 18.4 mph N/A   Clear
12:15 PM 60.8 °F 35.6 °F 39% 29.98 in 10.0 mi WNW 16.1 mph - N/A   Unknown
12:35 PM 60.8 °F 37.4 °F 42% 29.98 in 10.0 mi WNW 12.7 mph 18.4 mph N/A   Clear
12:55 PM 62.6 °F 39.2 °F 42% 29.98 in 10.0 mi WNW 12.7 mph 25.3 mph N/A   Clear
1:15 PM 62.6 °F 37.4 °F 39% 29.97 in 10.0 mi WNW 15.0 mph 21.9 mph N/A   Clear
1:35 PM 64.4 °F 37.4 °F 37% 29.96 in 10.0 mi WNW 15.0 mph 23.0 mph N/A   Clear
1:55 PM 64.4 °F 35.6 °F 34% 29.96 in 10.0 mi NW 16.1 mph 23.0 mph N/A   Clear
2:15 PM 66.2 °F 39.2 °F 37% 29.96 in 10.0 mi WNW 13.8 mph 19.6 mph N/A   Clear
2:35 PM 66.2 °F 39.2 °F 37% 29.95 in 10.0 mi NW 10.4 mph 23.0 mph N/A   Clear
2:55 PM 66.2 °F 37.4 °F 35% 29.95 in 10.0 mi WNW 15.0 mph 20.7 mph N/A   Clear
3:15 PM 66.2 °F 37.4 °F 35% 29.95 in 10.0 mi NW 13.8 mph 19.6 mph N/A   Clear
3:35 PM 66.2 °F 41.0 °F 40% 29.94 in 10.0 mi WNW 12.7 mph 17.3 mph N/A   Clear
3:55 PM 66.2 °F 39.2 °F 37% 29.94 in 10.0 mi West 17.3 mph 21.9 mph N/A   Clear
4:15 PM 64.4 °F 44.6 °F 49% 29.94 in 10.0 mi West 13.8 mph 20.7 mph N/A   Clear
4:35 PM 64.4 °F 41.0 °F 42% 29.94 in 10.0 mi West 20.7 mph 26.5 mph N/A   Clear
4:55 PM 64.4 °F 41.0 °F 42% 29.93 in 10.0 mi West 17.3 mph 25.3 mph N/A   Clear
5:15 PM 64.4 °F 41.0 °F 42% 29.94 in 10.0 mi West 18.4 mph 24.2 mph N/A   Clear
5:35 PM 64.4 °F 39.2 °F 40% 29.94 in 10.0 mi West 19.6 mph - N/A   Clear
5:55 PM 62.6 °F 39.2 °F 42% 29.94 in 10.0 mi West 18.4 mph 23.0 mph N/A   Clear
6:15 PM 62.6 °F 41.0 °F 45% 29.94 in 10.0 mi West 13.8 mph 21.9 mph N/A   Clear
6:35 PM 62.6 °F 41.0 °F 45% 29.95 in 10.0 mi WNW 15.0 mph - N/A   Clear
6:55 PM 60.8 °F 39.2 °F 45% 29.95 in 10.0 mi WNW 16.1 mph 21.9 mph N/A   Clear
7:15 PM 59.0 °F 37.4 °F 45% 29.96 in 10.0 mi NW 16.1 mph 23.0 mph N/A   Clear
7:35 PM 59.0 °F 39.2 °F 48% 29.97 in 10.0 mi NW 13.8 mph 19.6 mph N/A   Clear
7:55 PM 57.2 °F 39.2 °F 51% 29.98 in 10.0 mi NW 15.0 mph 19.6 mph N/A   Clear
8:15 PM 57.2 °F 39.2 °F 51% 29.98 in 10.0 mi NW 16.1 mph - N/A   Clear
8:35 PM 57.2 °F 39.2 °F 51% 29.99 in 10.0 mi NW 17.3 mph - N/A   Clear
8:55 PM 55.4 °F 39.2 °F 54% 30.00 in 10.0 mi NW 15.0 mph 24.2 mph N/A   Clear
9:15 PM 55.4 °F 39.2 °F 54% 30.01 in 10.0 mi NNW 16.1 mph - N/A   Clear
9:35 PM 55.4 °F 39.2 °F 54% 30.02 in 10.0 mi NW 17.3 mph - N/A   Clear
9:55 PM 55.4 °F 39.2 °F 54% 30.03 in 10.0 mi NW 18.4 mph 23.0 mph N/A   Clear
10:15 PM 55.4 °F 39.2 °F 54% 30.03 in 10.0 mi NNW 17.3 mph 25.3 mph N/A   Clear
10:35 PM 55.4 °F 39.2 °F 54% 30.03 in 10.0 mi NNW 17.3 mph 24.2 mph N/A   Clear
10:55 PM 53.6 °F 39.2 °F 58% 30.03 in 10.0 mi NNW 18.4 mph 23.0 mph N/A   Clear
11:15 PM 53.6 °F 39.2 °F 58% 30.04 in 10.0 mi NNW 15.0 mph 20.7 mph N/A   Clear
11:35 PM 53.6 °F 39.2 °F 58% 30.04 in 10.0 mi NNW 15.0 mph - N/A   Clear
11:55 PM 53.6 °F 39.2 °F 58% 30.05 in 10.0 mi NNW 16.1 mph - N/A   Clear